Погода в Каикоуре

Новая Зеландия     42°23′47″S   173°40′51″E
темп.,
°C
ветер,
м/с
пор.,
м/с
влажн.,
%
обл.,
%
осадки,
мм/ч
давл.,
гПа
погр.,
м
19 января, ср
ср1901:00+17св67791 0.0 1010409
04:00+17св22825 0.0 1008226
07:00+17сз0079100 0.0 100788
10:00+18св348096 0.0 1006148
13:00+18св558396 0.0 1004137
16:00+19св678395 0.0 100286
19:00+19в228490 0.0 100130
22:00+19ююз2382100 0.1 100233
20 января, чт
чт2001:00+15юз121488100 2.3 1005768
04:00+14юз91187100 4.5 1005903
07:00+14зюз6882100 8.6 1007731
10:00+13юз121283100 3.7 10111025
13:00+14юз787085 4.3 10121126
16:00+14ююв336475 0.1 1011854
19:00+15св556692 0.1 1010905
22:00+14ссв667767 0.1 1012551
21 января, пт
пт2101:00+14св66735 0.1 1012739
04:00+15ссв557377 0.0 1010543
07:00+14зюз3273100 0.0 1012310
10:00+15ююз796743 0.0 1015652
13:00+16ю777265 0.0 1016822
16:00+16ю876895 0.0 1017973
19:00+16ю336640 0.0 1018809
22:00+16ссв11650 0.0 1020531
22 января, сб
сб2201:00+16ссв22695 0.0 1020309
04:00+16св44735 0.0 1018309
07:00+16св557482 0.0 1018268
10:00+17св657521 0.0 1017192
13:00+18св5779100 0.0 1015172
16:00+18св697995 0.0 1013189
19:00+19всв34795 0.0 1011110
22:00+18юз468796 0.0 1012199
23 января, вс
вс2301:00+17юз1013905 0.0 1013571
04:00+16ю101089100 0.3 1013640
07:00+15ю7785100 0.9 1015695
10:00+15ю5582100 0.4 1017593
13:00+15ю448199 0.7 1017588
16:00+15ююв6679100 0.4 1017748
19:00+15ююв4475100 1.0 1018735
22:00+14ююв2375100 0.4 1019636